[[{"header":{"parameterUnit":"m.s-1","parameterCategory":2,"la1":30.2992,"la2":30.254,"lo1":-89.0895,"lo2":-89.0443,"dy":0.0025,"dx":0.0025,"nx":19,"ny":19,"refTime":"2026-03-10T03:00:00:Z","depth":"0","parameterNumber":2,"parameterNumberName":"U-component_of_CURRENTS"},"data":[0,0,0,0.2111,0.2112,0.2158,0.2158,0.223,0.223,0,0,0,0,0,0,0,0,0,0,0,0.2088,0.2089,0.211,0.2112,0.2158,0.2158,0.2229,0.223,0,0,0,0,0,0,0,0,0,0,0,0.2088,0.2089,0.2089,0.2112,0.2158,0.2158,0.2229,0.2191,0,0,0,0,0,0,0,0,0,0,0.2144,0.2127,0.2088,0.2089,0.2112,0.2158,0.2159,0.2189,0.2193,0.2212,0,0.2215,0,0.2228,0.2235,0.2235,0,0,0,0.2111,0.2123,0.2133,0.2089,0.2113,0.2158,0.2137,0.2191,0.2196,0.2218,0.2217,0.2219,0.2229,0.2236,0.2236,0.2321,0.2322,0,0,0.2109,0.2103,0.2129,0.2136,0.2121,0.2136,0.2139,0.2194,0.22,0.2217,0.2221,0.223,0.2236,0.2237,0.2321,0.2322,0,0,0,0.2101,0.2101,0.2108,0.2132,0.2142,0.2137,0.214,0.2198,0.2199,0.2222,0.2231,0.2237,0.2238,0.2321,0.2321,0.24,0,0,0,0.21,0.2097,0.2107,0.2105,0.2141,0.2171,0.2143,0.2195,0.2202,0.2231,0.2237,0.2238,0.232,0.2321,0.2397,0.2498,0,0,0,0.2087,0.2096,0.2099,0.2104,0.2125,0.217,0.2175,0.2197,0.2208,0.2236,0.2239,0.232,0.2321,0.2394,0.2491,0.2569,0,0,0,0.2082,0.2125,0.2098,0.2128,0.2124,0.2167,0.2175,0.2204,0.2226,0.2237,0.232,0.2321,0.2393,0.2487,0.2564,0.2478,0.2493,0,0,0.2143,0.2132,0.2144,0.2122,0.2185,0.2161,0.2232,0.2256,0.2248,0.2302,0.2304,0.2398,0.249,0.2568,0.2528,0.2542,0,0,0,0.2166,0.2209,0.2208,0.2233,0.2221,0.2282,0.2279,0.2294,0.2344,0.2266,0.2393,0.2451,0.2497,0.2433,0.2445,0.2341,0.2325,0.2325,0.2325,0.2352,0.2311,0.2362,0.2344,0.2361,0.2371,0.2415,0.2443,0.2388,0.242,0.2508,0.2623,0.2553,0.2561,0.2454,0.2465,0.2466,0.2466,0.2466,0.2495,0.251,0.2494,0.2531,0.2533,0.2587,0.2609,0.2586,0.2665,0.2588,0.2626,0.2512,0.2578,0.2459,0.2471,0.247,0.247,0.2469,0.2469,0.2605,0.26,0.2612,0.264,0.2721,0.2719,0.2807,0.2813,0.2797,0.284,0.2754,0.2751,0.2657,0.2838,0.2839,0.284,0.284,0.2841,0.2841,0.2675,0.2686,0.2699,0.2745,0.2768,0.2835,0.2921,0.2961,0.2959,0.2891,0.2888,0.2679,0.2738,0.2734,0.2853,0.2851,0.285,0.2849,0.2848,0.2744,0.2717,0.2734,0.2745,0.2785,0.2787,0.2918,0.2968,0.3036,0.3014,0.2789,0.2898,0.2882,0.2869,0.2868,0.3016,0.3016,0.3016,0.3016,0.2759,0.2758,0.2717,0.2706,0.2738,0.2752,0.2718,0.2765,0.2795,0.2753,0.2803,0.2649,0.2647,0.2609,0.2602,0.2592,0.2667,0.2667,0.2666,0.2765,0.2749,0.2702,0.2671,0.2691,0.2663,0.2528,0.2414,0.25,0.2645,0.2688,0.2703,0.2466,0.2471,0.2394,0.2393,0.237,0,0]},{"header":{"parameterUnit":"m.s-1","parameterCategory":2,"la1":30.2992,"la2":30.254,"lo1":-89.0895,"lo2":-89.0443,"dy":0.0025,"dx":0.0025,"nx":19,"ny":19,"refTime":"2026-03-10T03:00:00:Z","depth":"0","parameterNumber":3,"parameterNumberName":"V-component_of_CURRENTS"},"data":[0,0,0,0.054,0.054,0.0521,0.0521,0.0464,0.0463,0,0,0,0,0,0,0,0,0,0,0,0.0546,0.0546,0.054,0.054,0.0521,0.0521,0.0464,0.0463,0,0,0,0,0,0,0,0,0,0,0,0.0546,0.0546,0.0546,0.054,0.0521,0.0521,0.0464,0.0484,0,0,0,0,0,0,0,0,0,0,0.0506,0.0518,0.0546,0.0546,0.054,0.0521,0.0521,0.0485,0.0483,0.0465,0,0.0469,0,0.0467,0.0459,0.0459,0,0,0,0.0531,0.052,0.0518,0.0546,0.054,0.0521,0.0527,0.0484,0.0481,0.0462,0.0468,0.0466,0.0466,0.0459,0.0459,0.0465,0.0466,0,0,0.0533,0.0537,0.052,0.0516,0.0542,0.0528,0.0527,0.0483,0.048,0.0468,0.0465,0.0465,0.0458,0.0458,0.0465,0.0465,0,0,0,0.0541,0.0538,0.0537,0.0519,0.0519,0.0527,0.0526,0.0482,0.0483,0.0464,0.0465,0.0458,0.0457,0.0464,0.0465,0.0581,0,0,0,0.0541,0.0543,0.0537,0.0539,0.0521,0.0505,0.0527,0.0486,0.0481,0.0465,0.0458,0.0457,0.0464,0.0465,0.0577,0.0659,0,0,0,0.0546,0.0543,0.0544,0.0539,0.0535,0.0506,0.0504,0.0485,0.0482,0.0459,0.0457,0.0463,0.0464,0.0573,0.0651,0.0728,0,0,0,0.0546,0.0576,0.0545,0.058,0.0536,0.0566,0.0504,0.0507,0.0495,0.0458,0.0464,0.0465,0.0572,0.0646,0.0722,0.075,0.0776,0,0,0.0592,0.0582,0.0605,0.0577,0.0629,0.0568,0.0621,0.0567,0.0505,0.0473,0.0473,0.0578,0.065,0.0727,0.0819,0.0843,0,0,0,0.0626,0.0653,0.0659,0.0679,0.0672,0.0701,0.0643,0.0616,0.0587,0.0504,0.057,0.0612,0.0657,0.0661,0.0681,0.057,0.047,0.047,0.047,0.0707,0.0713,0.0776,0.0793,0.0809,0.0786,0.0798,0.0753,0.0663,0.0666,0.0699,0.0831,0.0836,0.0851,0.0736,0.0673,0.0674,0.0674,0.0674,0.083,0.0877,0.0894,0.0963,0.0966,0.1006,0.0972,0.0916,0.0907,0.0804,0.084,0.0775,0.088,0.0749,0.0682,0.0681,0.068,0.0679,0.0678,0.0902,0.0929,0.0977,0.1074,0.1155,0.1153,0.1248,0.1169,0.1053,0.1073,0.1048,0.1045,0.0938,0.1075,0.1076,0.1076,0.1077,0.1077,0.1078,0.0953,0.1003,0.1081,0.1188,0.1261,0.1366,0.1406,0.1421,0.1336,0.1204,0.1203,0.0974,0.0953,0.0947,0.1089,0.1087,0.1086,0.1085,0.1084,0.102,0.1025,0.1153,0.1232,0.1424,0.1584,0.1636,0.1675,0.1633,0.1587,0.1208,0.1262,0.1234,0.1216,0.1214,0.1418,0.1418,0.1418,0.1418,0.1033,0.1053,0.1202,0.1342,0.1531,0.1679,0.1864,0.1849,0.1578,0.1383,0.1283,0.1166,0.1158,0.1116,0.11,0.1092,0.126,0.1259,0.1259,0.1053,0.1103,0.12,0.1352,0.1578,0.1791,0.1965,0.1939,0.1496,0.1238,0.113,0.1137,0.0944,0.0939,0.0847,0.0834,0.081,0,0]}],[{"header":{"parameterUnit":"m.s-1","parameterCategory":2,"la1":30.2992,"la2":30.254,"lo1":-89.0895,"lo2":-89.0443,"dy":0.0025,"dx":0.0025,"nx":19,"ny":19,"refTime":"2026-03-10T03:00:00:Z","depth":"2","parameterNumber":2,"parameterNumberName":"U-component_of_CURRENTS"},"data":[0,0,0,0.1894,0.1896,0.1955,0.1955,0.2032,0.2033,0,0,0,0,0,0,0,0,0,0,0,0.187,0.187,0.1894,0.1896,0.1955,0.1955,0.2032,0.2033,0,0,0,0,0,0,0,0,0,0,0,0.187,0.187,0.1871,0.1896,0.1955,0.1955,0.2032,0.1987,0,0,0,0,0,0,0,0,0,0,0.193,0.1911,0.187,0.1871,0.1896,0.1955,0.1955,0.1985,0.199,0.2006,0,0.2013,0,0.2027,0.2038,0.2039,0,0,0,0.1896,0.1906,0.1919,0.1871,0.1897,0.1955,0.1928,0.1988,0.1993,0.2012,0.2014,0.2017,0.2028,0.2039,0.2039,0.2127,0.2127,0,0,0.1893,0.1885,0.1915,0.1923,0.191,0.1926,0.193,0.1991,0.1998,0.2015,0.2019,0.203,0.2039,0.204,0.2127,0.2127,0,0,0,0.1883,0.1883,0.1895,0.1919,0.1931,0.1928,0.1932,0.1996,0.1998,0.202,0.203,0.204,0.2041,0.2126,0.2127,0.2193,0,0,0,0.1881,0.1877,0.1893,0.189,0.193,0.1965,0.1935,0.1994,0.2002,0.203,0.204,0.2041,0.2126,0.2126,0.219,0.2246,0,0,0,0.1868,0.1876,0.1881,0.1889,0.1915,0.1965,0.1971,0.1996,0.2008,0.2039,0.2042,0.2125,0.2126,0.2188,0.2241,0.2315,0,0,0,0.186,0.1885,0.1881,0.1907,0.1914,0.1961,0.1971,0.2006,0.2032,0.204,0.2126,0.2127,0.2187,0.2237,0.2312,0.2208,0.2218,0,0,0.1889,0.1888,0.1901,0.19,0.195,0.1953,0.202,0.2052,0.2053,0.2105,0.2107,0.2191,0.224,0.2315,0.2261,0.2269,0,0,0,0.1909,0.193,0.1938,0.1966,0.1985,0.2044,0.2064,0.2087,0.2143,0.2073,0.2191,0.2221,0.2265,0.2194,0.2201,0.2131,0.2131,0.2131,0.2131,0.1976,0.1976,0.2012,0.2029,0.2062,0.2112,0.2162,0.2202,0.218,0.2215,0.2273,0.2377,0.23,0.2304,0.2257,0.2258,0.2258,0.2258,0.2258,0.2024,0.2039,0.2066,0.2103,0.2154,0.2218,0.2291,0.23,0.2393,0.2341,0.2381,0.2266,0.2315,0.2264,0.2263,0.2262,0.2261,0.2261,0.2261,0.206,0.2064,0.2086,0.2138,0.2231,0.2292,0.2381,0.2437,0.2478,0.2525,0.2453,0.245,0.2441,0.2546,0.2546,0.2547,0.2548,0.2548,0.2548,0.2062,0.2083,0.2106,0.218,0.2219,0.2312,0.2443,0.2495,0.2551,0.2542,0.2541,0.2475,0.2465,0.2458,0.2557,0.2556,0.2554,0.2554,0.2553,0.2047,0.2072,0.2097,0.2125,0.2196,0.2202,0.2358,0.2443,0.2547,0.2549,0.2546,0.2543,0.2523,0.2514,0.2508,0.2615,0.2615,0.2615,0.2615,0.2028,0.205,0.2053,0.2069,0.2105,0.2138,0.2115,0.2197,0.235,0.2391,0.24,0.2277,0.2279,0.2238,0.2235,0.2221,0.2253,0.2252,0.2252,0.1981,0.201,0.1999,0.2041,0.2046,0.2021,0.1915,0.1856,0.1992,0.2235,0.2317,0.2594,0.2432,0.2428,0.2376,0.2368,0.2349,0,0]},{"header":{"parameterUnit":"m.s-1","parameterCategory":2,"la1":30.2992,"la2":30.254,"lo1":-89.0895,"lo2":-89.0443,"dy":0.0025,"dx":0.0025,"nx":19,"ny":19,"refTime":"2026-03-10T03:00:00:Z","depth":"2","parameterNumber":3,"parameterNumberName":"V-component_of_CURRENTS"},"data":[0,0,0,0.0387,0.0387,0.0374,0.0374,0.0321,0.032,0,0,0,0,0,0,0,0,0,0,0,0.0391,0.0391,0.0387,0.0387,0.0374,0.0374,0.0321,0.032,0,0,0,0,0,0,0,0,0,0,0,0.0391,0.0391,0.0391,0.0387,0.0374,0.0374,0.0321,0.0338,0,0,0,0,0,0,0,0,0,0,0.0355,0.0365,0.0391,0.0391,0.0387,0.0374,0.0374,0.0339,0.0337,0.0319,0,0.0323,0,0.0323,0.0317,0.0317,0,0,0,0.038,0.0366,0.0366,0.0391,0.0387,0.0374,0.0378,0.0338,0.0336,0.0316,0.0322,0.032,0.0322,0.0316,0.0316,0.0317,0.0317,0,0,0.038,0.0382,0.0368,0.0365,0.039,0.0378,0.0377,0.0337,0.0334,0.0322,0.0319,0.0321,0.0316,0.0316,0.0316,0.0317,0,0,0,0.0388,0.0383,0.0384,0.0367,0.0369,0.0378,0.0377,0.0336,0.0338,0.0319,0.0321,0.0316,0.0315,0.0316,0.0316,0.0412,0,0,0,0.0388,0.0388,0.0385,0.0385,0.037,0.0357,0.0377,0.034,0.0336,0.0321,0.0316,0.0314,0.0315,0.0316,0.0409,0.0453,0,0,0,0.0391,0.0388,0.039,0.0385,0.0384,0.0358,0.0357,0.034,0.0337,0.0316,0.0314,0.0315,0.0316,0.0406,0.0447,0.0492,0,0,0,0.0388,0.0402,0.039,0.0414,0.0384,0.041,0.0357,0.0361,0.0349,0.0315,0.0315,0.0316,0.0405,0.0443,0.0489,0.0506,0.0525,0,0,0.0408,0.0404,0.0424,0.0413,0.0447,0.0411,0.045,0.0405,0.0356,0.0323,0.0323,0.041,0.0446,0.0491,0.0563,0.058,0,0,0,0.0432,0.0443,0.0452,0.0471,0.048,0.0503,0.0465,0.0444,0.042,0.0355,0.0403,0.0423,0.0448,0.0451,0.0464,0.0321,0.0321,0.0321,0.0321,0.0432,0.046,0.0501,0.0537,0.0558,0.056,0.0572,0.0536,0.0479,0.0482,0.0496,0.0589,0.0593,0.0603,0.0488,0.0488,0.0488,0.0489,0.0489,0.047,0.0513,0.0549,0.0602,0.0636,0.0673,0.0676,0.0647,0.0644,0.0576,0.0596,0.0546,0.0623,0.0496,0.0495,0.0494,0.0493,0.0493,0.0492,0.0487,0.0519,0.0554,0.0646,0.0721,0.0758,0.0834,0.0797,0.0736,0.0757,0.0732,0.073,0.065,0.076,0.0761,0.0761,0.0762,0.0762,0.0762,0.0497,0.0539,0.061,0.0705,0.0781,0.0877,0.0929,0.0943,0.0904,0.0839,0.0838,0.068,0.0671,0.0664,0.0769,0.0768,0.0767,0.0766,0.0766,0.0533,0.0561,0.067,0.0747,0.092,0.1053,0.1085,0.1111,0.1089,0.1063,0.088,0.0875,0.0844,0.0831,0.0827,0.0968,0.0968,0.0968,0.0968,0.0556,0.0578,0.0733,0.0865,0.1024,0.1137,0.1271,0.1246,0.1124,0.1017,0.1015,0.0959,0.095,0.0919,0.0904,0.0899,0.1059,0.1059,0.1059,0.058,0.0637,0.0751,0.0898,0.1081,0.1239,0.1359,0.1321,0.1113,0.1062,0.1017,0.0977,0.0884,0.0874,0.0813,0.0796,0.0781,0,0]}],[{"header":{"parameterUnit":"m.s-1","parameterCategory":2,"la1":30.2992,"la2":30.254,"lo1":-89.0895,"lo2":-89.0443,"dy":0.0025,"dx":0.0025,"nx":19,"ny":19,"refTime":"2026-03-10T03:00:00:Z","depth":"4","parameterNumber":2,"parameterNumberName":"U-component_of_CURRENTS"},"data":[0,0,0,0.1338,0.1341,0.1474,0.1474,0.16,0.16,0,0,0,0,0,0,0,0,0,0,0,0.1297,0.1298,0.1338,0.1341,0.1474,0.1474,0.1599,0.16,0,0,0,0,0,0,0,0,0,0,0,0.1297,0.1298,0.1299,0.1342,0.1474,0.1475,0.1599,0.1511,0,0,0,0,0,0,0,0,0,0,0.1388,0.1361,0.1298,0.1299,0.1342,0.1474,0.1475,0.1507,0.1516,0.1525,0,0.1553,0,0.1576,0.1607,0.1608,0,0,0,0.1345,0.1353,0.1382,0.1299,0.1343,0.1473,0.1415,0.1513,0.1523,0.1537,0.1555,0.156,0.1578,0.1608,0.1609,0.1723,0.1724,0,0,0.1337,0.1327,0.1375,0.1389,0.1387,0.1411,0.1419,0.1519,0.1536,0.1555,0.1563,0.158,0.1609,0.161,0.1723,0.1723,0,0,0,0.1314,0.1322,0.135,0.1384,0.141,0.1414,0.1424,0.1532,0.154,0.1564,0.1581,0.1609,0.1611,0.1722,0.1723,0.1767,0,0,0,0.131,0.1308,0.1346,0.1342,0.1408,0.148,0.1435,0.1534,0.1546,0.1581,0.1609,0.1612,0.1722,0.1723,0.1764,0.1771,0,0,0,0.129,0.1306,0.1322,0.1341,0.1396,0.1479,0.1494,0.1537,0.1555,0.1608,0.1612,0.1722,0.1723,0.1762,0.1768,0.1826,0,0,0,0.1272,0.1294,0.1322,0.136,0.1395,0.1469,0.1494,0.1562,0.1608,0.161,0.1722,0.1723,0.1762,0.1766,0.1823,0.1578,0,0,0,0.128,0.1295,0.1315,0.1343,0.1401,0.145,0.1533,0.1604,0.1627,0.1685,0.1689,0.1765,0.1767,0.1825,0.1646,0,0,0,0,0.1305,0.1317,0.1341,0.1389,0.1449,0.1524,0.1595,0.1637,0.172,0.166,0.1776,0.1776,0.1811,0.1661,0.1729,0.1728,0.1728,0.1728,0.1728,0.1274,0.1316,0.1351,0.1412,0.1475,0.1585,0.1653,0.1725,0.1745,0.1793,0.182,0.1902,0.1745,0.1836,0.1836,0.1836,0.1837,0.1837,0.1837,0.1259,0.1267,0.135,0.14,0.1498,0.1586,0.1721,0.1771,0.1888,0.1872,0.1905,0.1726,0.1841,0.1841,0.184,0.1839,0.1839,0.1839,0.1838,0.1211,0.1218,0.1276,0.1364,0.1469,0.1594,0.1697,0.1815,0.1914,0.1966,0.1831,0.1941,0.1929,0.2003,0.2003,0.2004,0.2004,0.2004,0.2004,0.1123,0.118,0.1219,0.1324,0.1385,0.1504,0.1698,0.1772,0.1903,0.185,0.1993,0.1958,0.1953,0.1939,0.2009,0.2008,0.2007,0.2007,0.2007,0.1044,0.1088,0.1131,0.1185,0.1305,0.1374,0.1578,0.1677,0.1759,0.1764,0.1793,0.1802,0.1766,0.1766,0.1743,0.1759,0.1756,0.1753,0,0.0976,0.1004,0.1042,0.1089,0.1146,0.1283,0.1336,0.1459,0.1585,0.1534,0.1765,0.1793,0.1798,0.1753,0.1749,0.1718,0,0,0,0.0923,0.0948,0.0946,0.1009,0.1052,0.1173,0.1341,0.1335,0.1569,0.1557,0.168,0.1699,0.1854,0.2023,0.1991,0.1984,0.196,0,0]},{"header":{"parameterUnit":"m.s-1","parameterCategory":2,"la1":30.2992,"la2":30.254,"lo1":-89.0895,"lo2":-89.0443,"dy":0.0025,"dx":0.0025,"nx":19,"ny":19,"refTime":"2026-03-10T03:00:00:Z","depth":"4","parameterNumber":3,"parameterNumberName":"V-component_of_CURRENTS"},"data":[0,0,0,0.0292,0.0292,0.0296,0.0296,0.0263,0.0262,0,0,0,0,0,0,0,0,0,0,0,0.029,0.0291,0.0292,0.0292,0.0296,0.0296,0.0263,0.0262,0,0,0,0,0,0,0,0,0,0,0,0.029,0.0291,0.0291,0.0292,0.0296,0.0296,0.0263,0.0268,0,0,0,0,0,0,0,0,0,0,0.0268,0.0273,0.029,0.0291,0.0292,0.0296,0.0296,0.0268,0.0268,0.0252,0,0.0259,0,0.0261,0.026,0.026,0,0,0,0.0286,0.0274,0.0278,0.0291,0.0292,0.0296,0.0293,0.0268,0.0267,0.025,0.0258,0.0257,0.0261,0.026,0.0259,0.026,0.026,0,0,0.0286,0.0286,0.0279,0.0277,0.03,0.0292,0.0293,0.0268,0.0267,0.0258,0.0257,0.026,0.0259,0.0259,0.026,0.026,0,0,0,0.0289,0.0286,0.0291,0.0278,0.0283,0.0293,0.0293,0.0268,0.0271,0.0256,0.026,0.0259,0.0259,0.0259,0.026,0.0325,0,0,0,0.0289,0.0288,0.0291,0.029,0.0284,0.0281,0.0294,0.0273,0.027,0.026,0.0259,0.0258,0.0259,0.026,0.0322,0.0337,0,0,0,0.0289,0.0288,0.0292,0.029,0.0295,0.0282,0.0283,0.0272,0.0272,0.026,0.0258,0.0259,0.026,0.032,0.0334,0.0347,0,0,0,0.0284,0.029,0.0292,0.0309,0.0295,0.032,0.0283,0.0291,0.0286,0.0259,0.0259,0.026,0.0319,0.0332,0.0345,0.0343,0,0,0,0.0288,0.0291,0.0305,0.0306,0.033,0.0318,0.0347,0.032,0.0289,0.0262,0.0263,0.0323,0.0334,0.0346,0.0384,0,0,0,0,0.0304,0.0308,0.0319,0.0336,0.0354,0.0373,0.0359,0.0347,0.0332,0.0289,0.0319,0.0323,0.0329,0.0323,0.0263,0.0263,0.0263,0.0263,0.0263,0.0276,0.0306,0.0331,0.0368,0.0391,0.0408,0.0418,0.0398,0.0371,0.0376,0.0374,0.0423,0.0419,0.0377,0.0377,0.0377,0.0378,0.0378,0.0378,0.0282,0.031,0.0346,0.0383,0.042,0.045,0.0467,0.0458,0.0458,0.0426,0.043,0.0389,0.0384,0.0383,0.0382,0.0381,0.0381,0.038,0.038,0.0269,0.0294,0.0322,0.0395,0.0443,0.0484,0.0535,0.0527,0.0501,0.0516,0.0488,0.0455,0.0451,0.0516,0.0516,0.0516,0.0517,0.0517,0.0517,0.0259,0.0293,0.0343,0.0412,0.0471,0.0536,0.0578,0.0589,0.0563,0.0548,0.0527,0.0468,0.0464,0.0458,0.0519,0.0519,0.0518,0.0518,0.0518,0.0279,0.0297,0.0378,0.0436,0.0561,0.0609,0.0644,0.0636,0.0642,0.061,0.0559,0.0556,0.0525,0.0519,0.0513,0.0593,0.0593,0.0593,0,0.0295,0.0306,0.0425,0.0522,0.0621,0.066,0.0698,0.0694,0.0631,0.0623,0.0626,0.057,0.0567,0.0531,0.0526,0.052,0,0,0,0.0327,0.0363,0.0446,0.054,0.0652,0.0688,0.071,0.0696,0.0644,0.063,0.0598,0.0597,0.0569,0.0526,0.047,0.0465,0.0452,0,0]}]]